Home   Weather   El Aaiún   Past weeks

Past Weather in El Aaiún, Western Sahara — Yesterday and Last 2 Weeks

Now
54 °F

Clear.


Feels Like: 52 °F
Forecast: 50 / 63 °F
Wind: 7 mph from Northeast

Location: Laayoune/Hassan Isl

Current Time: Jan 18, 2017 at 4:24:41 am

Latest Report: Jan 18, 2017 at 4:00 am


Visibility: 10 mi

Pressure: 30.07 "Hg

Humidity: 72%

Dew Point: 45 °F

Location of El AaiúnLocation

Past Weather in El Aaiún — Graph

°F

El Aaiún Temperature Yesterday

Maximum temperature yesterday: 73 °F (at 3:00 pm)
Minimum temperature yesterday: 48 °F (at 8:00 am)
Average temperature yesterday: 60 °F

High & Low Weather Summary for the Past Weeks

 TemperatureHumidityPressure
High79 °F (Jan 3, 3:00 pm)94% (Jan 10, 12:00 am)30.30 "Hg (Jan 10, 12:00 am)
Low48 °F (Jan 5, 6:00 am)4% (Jan 6, 5:00 pm)30.01 "Hg (Jan 6, 4:00 pm)
Average63 °F38%30.14 "Hg
* Reported Jan 3 3:00 am — Jan 18 3:00 am, El Aaiún, Weather by CustomWeather, © 2017

Note: Actual official high and low records may vary slightly from our data, if they occured in-between our weather recording intervals... More about our weather records

Advertising

El Aaiún Weather History for the Previous 24 Hours

Scroll right to see more
 ConditionsComfort  
Time TempWeatherWind HumidityBarometerVisibility
3:00 am
Wed, Jan 18
55 °FClear.8 mph72%30.07 "Hg10 mi
2:00 am55 °FClear.9 mph72%30.09 "Hg10 mi
1:00 am55 °FClear.10 mph72%30.09 "Hg10 mi
12:00 am55 °FClear.12 mph82%30.09 "Hg10 mi
11:00 pm
Tue, Jan 17
57 °FClear.9 mph72%30.09 "Hg10 mi
10:00 pm57 °FClear.14 mph82%30.09 "Hg10 mi
9:00 pm59 °FClear.14 mph72%30.09 "Hg10 mi
8:00 pm61 °FClear.13 mph59%30.09 "Hg10 mi
7:00 pm64 °FSunny.16 mph43%30.07 "Hg10 mi
6:00 pm68 °FSunny.14 mph30%30.07 "Hg10 mi
5:00 pm68 °FSunny.15 mph40%30.07 "Hg10 mi
4:00 pm72 °FSunny.9 mph16%30.07 "Hg10 mi
3:00 pm73 °FSunny.9 mph15%30.07 "Hg10 mi
2:00 pm72 °FSunny.8 mph16%30.09 "Hg10 mi
1:00 pm70 °FSunny.9 mph18%30.12 "Hg10 mi
12:00 pm66 °FSunny.15 mph21%30.18 "Hg10 mi
11:00 am63 °FSunny.14 mph24%30.18 "Hg10 mi
10:00 am59 °FSunny.12 mph29%30.18 "Hg10 mi
9:00 am54 °FSunny.9 mph35%30.18 "Hg10 mi
8:00 am48 °FClear.9 mph43%30.15 "Hg10 mi
7:00 am50 °FClear.8 mph40%30.15 "Hg10 mi
6:00 am52 °FClear.9 mph38%30.12 "Hg10 mi
5:00 am52 °FClear.9 mph38%30.12 "Hg10 mi
4:00 am54 °FClear.7 mph35%30.12 "Hg10 mi
Weather by CustomWeather, © 2017

See weather overviewHow to use our weather pages